Regional Weather Roundup
Issued by NWS

Home | Current Version | Previous Version | Text Only | Print | Product List | Glossary Off
Versions: 1 2 3 4 5 6 7 8 9 10 11 12 13 14 15 16 17 18 19 20 21 22 23 24 25 26 27 28 29 30 31 32 33 34 35 36 37 38 39 40 41 42 43 44 45 46 47 48 49 50

383
ASUS43 KLOT 260609
RWRIL

ILLINOIS REGIONAL WEATHER ROUNDUP
NATIONAL WEATHER SERVICE CHICAGO/ROMEOVILLE IL
100 AM CDT WED JUL 26 2017

NOTE: "FAIR" INDICATES FEW OR NO CLOUDS BELOW 12,000 FEET WITH NO
SIGNIFICANT WEATHER AND/OR OBSTRUCTIONS TO VISIBILITY.

* THESE STATIONS ARE NOT UNDER NWS QUALITY CONTROL. THEY ALSO MAY NOT
  REPORT WEATHER SUCH AS PRECIPITATION OR FOG.

ILZ001-002-007-009-015-016-024-260700-
NORTHWEST ILLINOIS

CITY           SKY/WX    TMP DP  RH WIND       PRES   REMARKS
MOLINE         CLOUDY    72  66  81 E3        30.10R
6HR MIN TEMP:  71; 6HR MAX TEMP:  81;

STERLING*      PTCLDY    67  63  87 CALM      30.12R
SAVANNA*       CLOUDY    69  64  85 S6        30.10R
$$

ILZ003-004-008-010-011-017-018-260700-
NORTH CENTRAL ILLINOIS

CITY           SKY/WX    TMP DP  RH WIND       PRES   REMARKS
ROCKFORD       CLOUDY    68  61  78 S7        30.12R
6HR MIN TEMP:  68; 6HR MAX TEMP:  78;

FREEPORT*      CLOUDY    65  62  90 S8        30.12R
ROCHELLE*      PTCLDY    65  62  90 S3        30.13R
DE KALB*       CLOUDY    64  60  88 S3        30.13R
PERU*          MOCLDY   N/A N/A N/A S9        30.12R
$$

ILZ005-006-012>014-019>023-260700-
NORTHEAST ILLINOIS

CITY           SKY/WX    TMP DP  RH WIND       PRES   REMARKS
CHICAGO-OHARE  MOCLDY    70  58  65 S8        30.11S
6HR MIN TEMP:  69; 6HR MAX TEMP:  77;

CHICAGO-MIDWAY MOCLDY    72  58  61 S7        30.11F
6HR MIN TEMP:  72; 6HR MAX TEMP:  79;

AURORA         CLOUDY    66  60  81 SE8       30.11F
6HR MIN TEMP:  65; 6HR MAX TEMP:  76;

LANSING*       PTCLDY    66  58  73 S6        30.13S
JOLIET*        CLEAR     68  61  77 S5        30.12S
WAUKEGAN       CLEAR     68  59  73 S5        30.12R
6HR MIN TEMP:  68; 6HR MAX TEMP:  74;

DUPAGE AIRPORT CLEAR     67  60  78 S9        30.10F
6HR MIN TEMP:  66; 6HR MAX TEMP:  77;

KANKAKEE*      CLOUDY    63  61  94 CALM      30.14S
WHEELING       CLEAR     69  61  75 S7        30.12S
6HR MIN TEMP:  69; 6HR MAX TEMP:  76;

MORRIS*        CLOUDY    65  61  87 S3        30.11R
ROMEOVILLE*    CLEAR     66  58  76 S9        30.11F
NORTHERLY ISL    N/A     71  56  58 S6          N/A
$$

LMZ740>746-260700-
SOUTHERN LAKE MICHIGAN

STATION/POSITION SKY/WX   TEMP    WIND        PRES    VSBY  WAVE
                          AIR SEA DIR/SP/G                  HT/PER
                          (F)     (DEG/KT/KT) (MB)    (MI)  (FT/S)
SOUTHERN BUOY              73 71  160/ 12/ 14 1019.7F         1/ 3
WILMETTE HARBOR            72 72  160/ 14/ 16   N/A           2/ 3
HARRISON CRIB              73     180/ 15/ 16   N/A
BURNHAM HARBOR             71                   N/A
CALUMET HARBOR                    150/  6/  9 1019.5F
BURNS HARBOR               71     160/ 10/ 16 1020.3F
MICHIGAN CITY              69     130/  5/  7   N/A
MICHIGAN CITY 6N           70 74  160/ 10/ 14   N/A           1
ST. JOSEPH                 68 72  170/  6/  8 1020.7          1
$$

ILZ025>027-034>036-040-047-049-050-058-095>099-260700-
WEST-CENTRAL ILLINOIS

CITY           SKY/WX    TMP DP  RH WIND       PRES   REMARKS
QUINCY         CLEAR     74  69  85 E8        30.09R
GALESBURG*     CLOUDY    71  67  87 SE3       30.12R
MACOMB*        PTCLDY    69  67  94 SE3       30.12R
JACKSONVILLE*  CLOUDY    71  68  89 SE7       30.09S
PITTSFIELD*    CLOUDY    73  70  91 E5        30.09S
$$

ILZ028>032-037-038-041>044-048-051>054-059>061-260700-
CENTRAL ILLINOIS

CITY           SKY/WX    TMP DP  RH WIND       PRES   REMARKS
PONTIAC        CLOUDY    64  64  98 SE6       30.13S
BLOOMINGTON    CLOUDY    68  61  78 SE10      30.13S
DECATUR        PTCLDY    69  65  86 SE6       30.12F
PEORIA         CLEAR     72  67  84 SE6       30.10S
6HR MIN TEMP:  72; 6HR MAX TEMP:  81;

LACON*         CLOUDY    67  63  87 CALM      30.10R
LINCOLN*       CLOUDY    69  67  94 SE3       30.10S
SPRINGFIELD    CLOUDY    74  69  85 SE8       30.10F
6HR MIN TEMP:  73; 6HR MAX TEMP:  84;

TAYLORVILLE    CLOUDY    71  67  89 SE7       30.10F
6HR MIN TEMP:  71; 6HR MAX TEMP:  82;

$$

ILZ033-039-045-046-055>057-062-063-260700-
EAST-CENTRAL ILLINOIS

CITY           SKY/WX    TMP DP  RH WIND       PRES   REMARKS
CHAMPAIGN      CLEAR     64  61  90 E6        30.13F
RANTOUL*       PTCLDY    66  63  91 SE3       30.13F
MATTOON        CLEAR     68  65  90 SE7       30.11F
PARIS*         CLEAR     65  63  91 SE5       30.14F
$$

ILZ079-100>102-260700-
SOUTHWEST ILLINOIS

CITY           SKY/WX    TMP DP  RH WIND       PRES   REMARKS
ALTON          PTCLDY    72  71  98 CALM      30.09S
BELLEVILLE     MOCLDY    75  70  84 CALM      30.08F
CAHOKIA*       PTCLDY    79  70  74 SE8       30.07S HX  82
SPARTA*        PTCLDY    76  71  86 E6        30.09S
$$

ILZ064>066-069>071-074>076-080>082-084>086-088>090-092>094-260700-
SOUTH-CENTRAL ILLINOIS

CITY           SKY/WX    TMP DP  RH WIND       PRES   REMARKS
CARBONDALE     MOCLDY    76  74  93 SE3       30.08S
6HR MIN TEMP:  75; 6HR MAX TEMP:  86;

CAIRO*         CLEAR     76  75  95 CALM      30.08S
EFFINGHAM*     CLEAR     70  69  96 E5        30.13S
MARION         MOCLDY    77  77 100 CALM      30.09F
MT. VERNON     CLEAR     74  69  85 E6        30.10F
CENTRALIA*     PTCLDY    74  71  88 E5        30.09S
SALEM*         PTCLDY    75  69  79 E3        30.10S
METROPOLIS*    CLEAR     76  73  91 CALM      30.09S
$$

ILZ067-068-072-073-078-083-087-091-260700-
SOUTHEAST ILLINOIS

CITY           SKY/WX    TMP DP  RH WIND       PRES   REMARKS
LAWRENCEVILLE  PTCLDY    71  66  84 E6        30.12S
FLORA*         PTCLDY    74  69  83 E5        30.11S
FAIRFIELD*     CLEAR     74  69  86 CALM      30.09F
HARRISBURG*    CLEAR     73  72  95 E3        30.09S
ROBINSON*      CLEAR     67  65  95 E3        30.14S
CARMI*         CLEAR     71  70  95 E5        30.09F
$$

ABBREVIATIONS USED IN REMARKS
   TC - TEMPERATURE IN CELSIUS
  WCI - WIND CHILL INDEX
   HX - HEAT INDEX
  VSB - VISIBILITY
$$





USA.gov is the U.S. government's official web portal to all federal, state and local government web resources and services.